Temperature
15 15 15 15 14 14 14 14 14 14 14 14 14 14 14 14 14 14 14 14 14 14 14 14 15 15 15 15 15 15 15 15 15 15 15 15 15 15 15 15 15 15 15
15 15 15 14 14 14 14 14 14 14 14 14 13 13 13 13 13 14 14 14 14 14 14 14 14 15 15 15 15 15 15 15 15 15 15 15 15 15 15 15 15 15 15
15 15 14 14 14 14 14 13 14 13 13 13 13 13 13 13 13 13 13 14 14 14 14 14 14 14 14 14 14 14 14 14 14 14 14 14 14 14 14 15 15 15 15
14 14 14 14 14 13 13 13 13 13 13 13 13 13 13 13 13 13 13 13 14 14 14 14 14 14 14 14 14 14 14 14 14 14 14 14 14 14 14 14 14 14 14
14 14 14 13 13 13 13 13 13 13 13 13 13 13 13 13 13 13 13 13 13 14 14 14 14 14 14 14 14 14 14 14 14 14 14 14 14 14 14 14 14 14 14
13 13 13 13 13 13 13 12 12 12 12 12 12 12 12 12 12 12 13 13 13 13 14 14 14 14 14 14 14 14 14 13 13 13 13 13 14 13 14 14 14 14 14
13 13 13 13 13 13 12 12 12 12 12 12 12 12 12 12 12 12 12 13 13 13 13 13 13 13 13 13 13 13 13 13 13 13 13 13 13 13 13 13 13 13 13
12 12 12 12 12 12 12 12 12 12 12 12 12 12 12 12 12 12 12 12 12 12 13 13 13 13 13 13 13 13 13 13 13 13 13 13 13 13 13 13 13 13 13
12 12 12 12 12 12 12 12 11 11 11 11 11 11 11 11 11 11 11 11 12 12 12 12 13 13 13 12 12 12 12 12 12 12 12 12 12 13 13 12 12 12 13
11 11 11 11 11 11 11 11 11 11 11 11 11 11 11 11 11 11 11 11 11 11 12 12 12 12 12 12 12 12 12 12 12 12 12 12 12 12 12 12 12 12 12
11 11 11 11 11 11 11 11 11 11 10 10 10 10 11 11 11 11 11 11 11 11 11 11 11 11 11 11 11 11 11 11 11 11 11 11 11 11 12 12 12 12 12
10 10 10 10 10 10 10 10 10 10 10 10 10 10 10 10 10 10 10 10 10 10 10 10 10 11 11 10 11 11 11 11 11 11 11 11 11 11 11 11 11 11 11
10 10 10 10 10 10 10 10 10 10 10 10 10 10 10 10 10 9 10 10 10 10 10 10 10 10 10 10 10 10 10 10 11 10 10 10 10 10 10 10 11 10 10
9 9 9 9 9 9 9 9 9 9 9 9 9 9 9 9 9 9 9 9 9 9 9 9 9 9 9 9 9 9 10 10 10 10 10 10 10 10 10 10 10 10 10
8 8 8 8 8 8 9 8 8 8 9 9 9 9 9 8 8 8 8 9 9 9 9 9 9 9 9 9 9 9 9 9 9 9 9 9 9 9 9 9 9 9 9
7 7 7 8 8 8 8 8 8 8 8 8 8 8 8 8 8 8 8 8 8 8 8 8 8 8 8 8 8 8 8 8 8 8 8 9 9 9 9 9 9 9 9
7 7 7 7 7 7 7 7 7 7 7 7 7 7 7 7 7 7 7 7 7 7 8 8 7 7 8 8 8 8 8 8 8 8 8 8 8 8 8 8 8 8 8
6 6 6 6 7 7 7 7 7 7 6 7 7 7 7 7 7 7 7 7 7 7 7 7 7 7 7 7 7 7 7 7 7 7 7 7 7 7 7 7 7 8 8
5 6 6 6 6 6 6 6 6 6 6 6 6 6 6 6 6 6 6 6 6 6 6 6 6 6 6 6 6 6 6 6 6 6 6 6 6 6 7 7 7 7 7
5 5 5 5 5 5 5 5 5 5 5 5 6 6 6 6 6 6 6 6 6 6 6 6 5 5 5 5 5 5 5 5 5 5 6 6 6 6 6 6 6 6 6
4 4 4 4 4 5 5 5 5 5 5 5 5 5 5 5 5 5 5 5 5 5 5 5 5 5 5 5 5 4 4 4 4 4 5 5 5 5 5 5 5 5 6
3 3 3 3 4 4 4 4 4 4 4 4 4 4 4 4 4 5 5 5 4 4 4 4 4 4 4 4 4 4 3 3 3 4 4 4 4 4 4 4 5 5 5
2 2 2 2 3 3 3 3 3 3 3 4 4 4 4 4 4 4 4 4 4 4 4 4 4 4 4 4 3 3 3 3 3 3 3 3 3 3 4 4 4 4 4
1 1 1 2 2 2 2 2 2 2 3 3 3 3 3 3 3 3 3 3 3 3 3 3 3 3 3 3 3 3 3 3 2 2 2 2 3 3 3 3 3 3 3
0 0 1 1 1 2 2 2 2 2 2 2 2 2 2 3 3 3 3 3 3 3 3 3 3 3 3 3 3 3 3 3 2 2 1 2 2 2 2 2 3 3 3
-1 -0 -0 0 1 1 1 1 1 1 1 2 2 2 2 2 2 2 2 2 2 2 2 2 2 2 2 2 2 2 2 2 2 2 2 1 1 2 2 2 2 2 2
Wind_Speed
5 7 8 10 10 10 10 10 10 10 11 11 11 11 11 12 13 14 15 15 15 15 16 16 17 17 17 18 18 18 18 19 19 20 20 20 20 20 20 19 18 17 19
7 9 9 11 10 10 10 11 11 10 11 11 11 11 11 12 13 14 14 15 15 16 16 16 16 17 17 18 18 17 17 17 17 17 19 19 20 20 20 20 18 17 19
7 9 10 10 10 10 11 11 11 10 11 11 11 11 11 12 13 13 14 15 15 16 16 16 16 16 17 17 17 16 16 15 15 16 16 16 17 19 19 20 19 19 19
7 9 9 10 10 11 11 11 10 10 11 11 11 11 12 13 13 13 14 15 15 16 16 16 16 16 16 16 16 15 15 15 15 15 15 15 15 18 19 19 19 19 19
7 8 9 10 10 10 11 11 10 10 10 10 11 11 12 13 13 13 14 14 15 16 16 16 16 16 15 15 15 15 15 15 15 15 16 16 15 17 18 18 18 19 19
7 9 10 11 10 10 10 11 10 10 10 10 11 11 12 12 13 14 14 14 15 16 16 15 15 16 15 15 14 14 15 15 14 15 15 15 14 16 17 17 18 18 19
6 8 10 10 10 10 10 10 10 10 10 10 10 11 11 12 13 14 14 14 14 15 15 15 15 15 15 15 15 14 15 14 14 15 15 15 15 16 17 17 17 17 18
7 7 9 9 9 9 10 10 10 9 10 10 10 11 11 11 12 13 14 14 14 15 15 14 15 15 15 15 14 15 15 14 14 14 15 15 15 16 17 17 17 17 17
7 7 8 8 8 8 9 10 10 11 11 11 10 11 12 12 12 13 14 14 14 14 14 14 14 14 15 15 14 15 16 15 14 13 13 13 15 15 15 16 16 16 17
6 6 6 7 7 7 7 9 10 10 11 11 11 11 12 12 12 13 13 14 14 13 13 13 13 13 14 14 14 14 14 14 15 14 13 13 14 15 15 15 15 15 16
5 4 5 5 5 6 7 8 8 9 10 10 10 11 10 10 11 11 13 14 13 13 12 12 12 12 12 13 13 13 13 12 14 13 13 13 14 14 14 14 15 15 14
3 3 3 4 5 5 6 7 6 6 7 8 8 8 8 8 9 10 12 13 13 12 11 10 10 10 9 9 11 12 11 13 12 12 12 14 13 14 14 14 15 15 15
3 3 3 4 5 4 4 5 5 5 5 6 7 7 8 8 8 9 8 9 9 9 8 8 9 8 9 9 10 11 11 11 11 12 13 14 13 13 13 14 15 15 15
3 3 3 3 4 4 4 4 4 4 4 4 5 7 7 5 5 6 6 6 6 7 6 7 7 8 10 10 10 10 11 11 11 11 13 14 14 14 13 14 14 14 14
3 3 3 3 3 4 4 3 4 3 4 5 5 6 7 5 4 5 5 6 6 7 6 6 6 7 8 9 10 10 10 11 11 11 11 14 14 13 13 13 13 13 13
3 2 2 3 3 3 3 3 3 4 4 4 4 6 6 6 5 5 5 5 6 6 6 6 6 6 6 7 7 9 9 10 10 10 10 12 13 13 12 12 12 12 12
2 2 2 2 3 3 3 3 3 4 4 3 4 6 6 6 6 6 4 4 5 6 7 6 6 6 5 6 6 7 8 9 9 9 10 10 10 11 12 12 12 11 11
3 3 2 3 3 3 2 3 3 4 3 3 4 5 6 6 7 6 4 4 6 6 5 4 4 3 3 3 3 4 6 7 7 8 10 10 10 10 11 11 11 10 10
3 3 3 3 3 3 3 3 3 4 4 3 3 4 5 6 7 6 5 4 6 5 4 4 3 3 4 3 3 3 4 4 5 7 8 9 9 10 9 9 10 10 9
4 4 3 3 3 3 3 2 3 3 3 3 3 3 4 5 6 6 5 5 6 4 3 3 3 3 3 3 3 3 3 3 5 5 5 7 8 8 9 9 9 8 8
4 3 3 3 3 2 1 1 1 1 1 2 3 3 3 4 5 6 4 4 4 4 4 4 4 4 3 2 2 2 2 2 3 3 4 5 6 6 8 8 8 8 7
3 2 2 2 1 2 1 1 0 2 1 1 2 3 3 4 5 5 5 4 3 4 4 4 5 3 2 2 2 2 1 1 1 1 2 2 3 5 5 6 7 7 6
3 2 2 1 1 1 1 1 1 1 1 1 0 0 1 3 4 5 6 5 4 4 5 5 5 4 3 2 1 3 3 2 1 0 0 1 2 2 3 4 5 4 4
3 2 2 1 1 2 1 0 1 2 1 1 2 1 1 3 4 5 6 6 4 3 4 4 4 3 5 4 2 1 1 3 3 1 1 1 1 1 1 2 2 2 2
3 2 2 1 1 2 2 1 1 2 1 1 2 2 2 2 3 4 5 5 4 3 4 4 4 4 4 5 3 1 1 1 2 2 2 2 1 1 1 1 2 2 2
3 2 2 2 2 2 2 2 1 2 2 2 2 3 2 2 2 4 5 4 4 3 4 4 5 5 5 5 4 3 3 2 3 2 2 2 2 2 2 2 2 3 3
Wind_Direction
109 120 139 129 121 113 108 104 99 94 90 87 83 79 76 78 78 76 74 73 74 77 77 76 75 75 74 73 72 72 71 69 70 71 71 73 75 76 77 77 78 79 83
116 124 138 127 121 115 110 103 100 96 92 89 86 84 81 82 81 78 76 74 75 77 76 74 74 75 74 73 73 73 72 70 70 70 72 70 71 74 75 73 76 81 82
109 122 134 123 119 115 111 106 101 99 96 93 89 87 87 87 84 81 79 76 76 77 74 72 73 75 73 72 71 71 69 67 66 69 72 72 71 72 73 74 76 77 79
106 119 129 122 118 116 113 109 105 103 100 97 93 90 89 89 88 85 82 78 77 78 75 73 72 73 73 70 69 67 65 62 64 69 71 72 72 74 75 75 75 76 77
93 108 119 117 115 117 117 113 108 107 104 101 98 94 93 91 89 86 83 81 78 78 76 75 73 73 74 71 68 66 62 60 65 68 70 71 71 76 79 77 76 77 77
89 100 116 114 111 116 120 118 114 110 108 104 101 99 95 93 91 88 85 82 79 78 76 75 74 72 72 71 69 65 62 61 63 66 69 71 72 77 81 80 79 79 79
91 95 115 116 113 111 113 116 117 115 111 108 105 104 99 96 93 90 87 85 81 79 77 75 75 71 70 69 66 64 64 62 65 66 67 69 74 78 80 82 81 80 79
88 90 111 114 111 111 108 106 109 111 112 108 107 103 101 98 96 92 89 87 83 80 77 74 75 71 70 67 63 61 60 61 65 66 66 67 73 77 78 79 80 80 80
81 83 95 107 107 105 105 104 103 100 101 101 99 99 96 94 94 93 90 87 83 80 77 75 75 73 69 65 60 61 62 60 61 63 66 67 74 77 78 79 79 80 80
76 77 87 98 100 101 102 102 101 101 101 100 96 95 95 94 92 91 90 87 83 80 77 74 75 73 69 63 58 59 61 58 63 60 61 68 75 77 78 78 79 81 80
81 76 76 85 88 93 100 104 101 102 103 103 100 99 96 93 90 87 89 89 87 82 77 74 75 73 67 60 57 57 59 64 66 61 60 67 76 79 79 78 80 83 81
119 108 84 89 90 95 99 101 101 104 108 106 104 99 95 93 96 94 91 91 88 82 78 74 74 69 62 58 55 55 60 65 66 62 62 66 72 78 80 80 82 82 80
135 124 102 92 94 96 92 96 96 100 101 107 109 106 100 98 101 99 95 91 88 83 74 71 64 60 61 60 59 59 60 66 67 63 60 67 70 76 80 81 83 83 82
114 117 106 97 100 98 99 97 99 97 94 95 109 107 100 91 93 101 100 100 93 82 74 72 67 63 61 59 62 63 62 65 67 66 64 67 70 72 77 80 81 81 79
104 93 82 74 97 103 97 100 100 97 100 100 103 106 107 99 96 95 94 94 88 85 79 74 71 69 63 59 61 62 64 68 68 69 69 69 69 70 72 76 78 79 77
107 101 88 83 72 90 95 106 102 104 103 111 108 108 112 109 103 95 89 88 85 87 85 80 73 69 66 64 60 59 61 65 67 67 70 70 70 68 69 71 75 76 77
87 101 98 90 69 75 96 101 104 110 115 115 116 122 122 119 116 108 100 93 94 95 91 88 82 77 73 67 61 61 63 64 67 66 66 69 70 69 68 68 69 71 72
55 71 72 69 69 61 74 92 98 103 103 105 116 123 127 127 125 113 105 100 107 105 97 92 91 89 80 75 65 63 66 68 71 72 70 69 70 69 68 67 68 68 68
62 62 55 61 72 64 57 91 96 96 92 94 106 113 122 126 127 119 115 112 116 107 96 103 95 105 97 87 77 68 70 70 72 77 73 70 73 74 73 70 66 66 68
60 60 53 48 47 56 57 80 89 85 84 93 96 108 126 131 133 126 121 125 123 113 113 111 110 101 109 109 91 67 58 72 72 73 79 76 74 75 76 72 67 64 64
59 57 55 47 36 46 57 101 147 161 144 103 111 122 132 138 140 130 125 129 127 132 136 134 133 119 110 114 97 67 35 60 79 72 84 87 82 79 78 74 69 67 60
60 57 57 54 38 22 349 346 218 170 159 125 107 125 142 146 149 146 140 142 142 137 142 146 143 140 148 152 143 138 120 20 16 93 94 106 95 83 77 72 69 68 62
44 41 25 7 360 3 6 19 52 74 99 80 100 158 161 166 162 158 153 148 154 155 163 164 162 157 171 195 160 146 158 191 188 329 186 126 121 104 85 84 81 72 67
18 16 24 12 350 350 15 59 181 180 204 232 204 209 201 176 171 164 156 152 156 157 163 171 168 174 167 184 202 204 167 147 161 168 299 245 131 123 126 100 98 96 95
10 4 6 16 354 2 353 303 224 194 213 191 190 190 210 193 174 169 164 158 162 165 167 169 174 183 183 183 186 188 195 159 172 171 211 231 248 231 182 162 146 165 170
19 16 14 13 3 355 346 342 308 208 199 192 196 199 210 219 194 182 179 170 168 171 177 180 181 191 197 190 186 182 175 177 187 174 196 221 229 245 242 213 198 196 191
Height
1508 1509 1511 1512 1514 1515 1516 1517 1518 1519 1520 1521 1522 1523 1524 1524 1525 1525 1525 1526 1526 1527 1528 1528 1529 1529 1530 1530 1531 1532 1532 1532 1532 1533 1533 1534 1535 1536 1537 1538 1538 1539 1540
1508 1509 1511 1512 1514 1516 1517 1518 1519 1520 1521 1522 1523 1524 1524 1525 1525 1526 1526 1527 1528 1528 1529 1529 1530 1531 1531 1532 1533 1533 1534 1534 1535 1535 1536 1537 1538 1539 1539 1540 1541 1542 1543
1508 1509 1511 1512 1514 1516 1517 1518 1520 1521 1522 1522 1523 1524 1525 1525 1526 1527 1527 1528 1529 1529 1530 1531 1532 1532 1533 1534 1535 1535 1536 1537 1537 1538 1538 1539 1540 1541 1542 1542 1543 1544 1545
1508 1509 1511 1513 1514 1516 1517 1519 1520 1521 1522 1523 1524 1525 1526 1526 1527 1528 1528 1529 1530 1530 1531 1532 1533 1534 1534 1535 1536 1537 1538 1538 1539 1539 1540 1541 1542 1543 1544 1545 1545 1546 1547
1508 1509 1511 1513 1514 1516 1517 1519 1520 1522 1522 1523 1525 1526 1526 1527 1528 1528 1529 1530 1531 1531 1532 1533 1534 1535 1536 1537 1538 1539 1540 1540 1541 1541 1541 1542 1543 1545 1546 1547 1547 1548 1549
1508 1509 1511 1513 1514 1516 1517 1519 1520 1522 1523 1524 1525 1526 1527 1528 1528 1529 1530 1531 1531 1532 1533 1534 1535 1536 1537 1538 1539 1540 1541 1542 1542 1543 1543 1544 1545 1546 1547 1548 1549 1550 1551
1508 1510 1511 1513 1514 1516 1517 1519 1521 1522 1523 1524 1525 1526 1527 1528 1529 1529 1530 1531 1532 1533 1534 1535 1536 1537 1538 1539 1540 1541 1542 1543 1543 1544 1545 1546 1547 1548 1548 1549 1550 1551 1552
1508 1510 1511 1512 1514 1516 1517 1519 1520 1522 1523 1524 1525 1527 1527 1528 1529 1530 1531 1532 1532 1533 1534 1535 1537 1538 1539 1540 1541 1542 1543 1543 1544 1545 1546 1547 1548 1549 1549 1550 1551 1552 1553
1508 1509 1511 1512 1514 1515 1517 1518 1520 1521 1523 1524 1525 1526 1527 1528 1529 1530 1531 1532 1533 1534 1535 1536 1537 1538 1539 1540 1541 1542 1543 1544 1545 1545 1547 1548 1549 1550 1550 1551 1552 1553 1554
1508 1509 1510 1511 1513 1515 1516 1518 1519 1521 1522 1523 1524 1526 1527 1528 1529 1530 1531 1532 1533 1534 1535 1536 1537 1538 1540 1541 1542 1542 1543 1544 1545 1546 1547 1549 1550 1550 1551 1552 1553 1554 1555
1507 1508 1509 1510 1512 1514 1515 1517 1518 1520 1521 1522 1524 1525 1526 1527 1529 1529 1530 1531 1533 1534 1535 1537 1538 1539 1540 1541 1542 1543 1544 1544 1545 1547 1548 1549 1550 1551 1552 1552 1553 1554 1555
1505 1507 1508 1509 1511 1512 1514 1515 1517 1518 1520 1521 1522 1524 1525 1527 1528 1529 1530 1531 1532 1534 1535 1536 1537 1538 1540 1541 1542 1543 1543 1544 1545 1546 1548 1549 1550 1551 1552 1553 1553 1554 1555
1505 1506 1507 1508 1510 1511 1513 1514 1515 1517 1518 1520 1521 1522 1524 1525 1527 1528 1529 1530 1532 1533 1534 1536 1537 1538 1539 1540 1541 1542 1543 1544 1545 1546 1548 1549 1550 1551 1552 1553 1554 1554 1555
1503 1504 1506 1507 1508 1510 1511 1513 1514 1515 1517 1518 1520 1521 1523 1524 1526 1527 1528 1529 1531 1532 1533 1535 1536 1538 1539 1540 1541 1542 1543 1544 1545 1546 1547 1549 1550 1551 1552 1553 1554 1554 1555
1501 1502 1503 1506 1507 1508 1510 1511 1512 1513 1515 1516 1518 1520 1521 1523 1524 1525 1527 1528 1529 1531 1532 1534 1535 1537 1538 1539 1540 1541 1542 1543 1545 1546 1547 1548 1549 1550 1552 1553 1553 1554 1555
1499 1500 1502 1503 1505 1506 1508 1508 1510 1511 1513 1514 1516 1518 1519 1521 1523 1524 1525 1526 1528 1529 1531 1532 1534 1535 1537 1538 1539 1540 1541 1542 1544 1545 1546 1547 1549 1550 1551 1552 1553 1553 1554
1497 1498 1499 1501 1502 1504 1505 1507 1508 1509 1511 1512 1513 1515 1517 1519 1521 1522 1523 1525 1526 1527 1529 1531 1533 1534 1535 1537 1538 1539 1540 1542 1543 1544 1545 1546 1547 1548 1549 1551 1552 1552 1553
1494 1496 1497 1499 1500 1501 1503 1504 1506 1507 1509 1510 1511 1513 1515 1517 1518 1520 1521 1522 1524 1526 1527 1529 1531 1532 1533 1535 1536 1538 1539 1540 1542 1543 1544 1545 1546 1547 1548 1549 1550 1551 1551
1492 1493 1494 1496 1497 1499 1500 1502 1504 1505 1506 1508 1509 1511 1513 1514 1516 1517 1518 1520 1522 1523 1525 1527 1528 1530 1532 1533 1535 1536 1538 1539 1540 1541 1542 1543 1544 1545 1546 1548 1549 1549 1550
1490 1491 1492 1494 1495 1496 1498 1499 1501 1502 1504 1505 1506 1508 1510 1512 1513 1515 1516 1518 1519 1521 1522 1524 1526 1528 1530 1531 1533 1534 1536 1537 1538 1539 1540 1541 1543 1544 1545 1546 1547 1547 1548
1488 1489 1490 1491 1492 1493 1495 1496 1497 1499 1500 1502 1504 1505 1507 1509 1510 1512 1513 1515 1516 1517 1519 1521 1523 1525 1527 1529 1531 1532 1534 1535 1536 1537 1538 1539 1540 1541 1542 1543 1544 1545 1546
1486 1486 1488 1489 1489 1491 1492 1493 1495 1496 1498 1499 1501 1503 1504 1505 1507 1508 1510 1511 1513 1514 1516 1518 1520 1522 1524 1526 1528 1529 1532 1534 1534 1535 1536 1537 1538 1539 1540 1541 1542 1542 1543
1484 1484 1485 1486 1487 1488 1489 1490 1492 1493 1494 1496 1497 1499 1501 1502 1503 1505 1506 1508 1510 1511 1512 1514 1516 1518 1520 1523 1525 1526 1528 1529 1531 1532 1533 1534 1535 1536 1537 1538 1539 1540 1541
1482 1483 1483 1483 1484 1485 1486 1487 1488 1489 1490 1491 1493 1495 1497 1499 1500 1501 1503 1504 1506 1507 1508 1510 1513 1515 1517 1518 1521 1523 1525 1525 1527 1528 1530 1531 1531 1532 1533 1535 1536 1536 1537
1481 1481 1481 1481 1481 1482 1483 1484 1485 1486 1487 1488 1490 1492 1494 1495 1496 1498 1499 1500 1502 1503 1505 1507 1508 1511 1513 1514 1516 1518 1520 1522 1523 1524 1525 1526 1527 1529 1530 1531 1532 1533 1534
1479 1479 1478 1478 1479 1479 1480 1481 1482 1482 1483 1485 1486 1488 1489 1491 1492 1494 1495 1496 1498 1499 1501 1502 1504 1506 1508 1510 1512 1514 1515 1517 1518 1519 1520 1521 1522 1524 1526 1527 1528 1529 1530